Regional Weather Roundup
Issued by NWS Portland, ME

Home | Current Version | Previous Version | Text Only | Print | Product List | Glossary On
Versions: 1 2 3 4 5 6 7 8 9 10 11 12 13 14 15 16 17 18 19 20 21 22 23 24 25 26 27 28 29 30 31 32 33 34 35 36 37 38 39 40 41 42 43 44 45 46 47 48 49 50
206
ASUS41 KGYX 250210
RWRGYX
WEATHER ROUNDUP FOR MAINE AND NEW HAMPSHIRE
NATIONAL WEATHER SERVICE GRAY ME
900 PM EST TUE JAN 24 2017

MEZ002-005-006-010-012-015-018-020-021-024-026-027-029-250300-
MAINE

CITY           SKY/WX    TMP DP  RH WIND       PRES   REMARKS
PORTLAND       LGT RAIN  33  31  92 N13       29.33S
SANFORD        LGT RAIN  33  32  96 N15       29.32F FOG
BAR HARBOR     RAIN      37  36  93 NE18G29   29.29F FOG
WISCASSET      LGT RAIN  35  33  92 VRB5      29.33F FOG
ROCKLAND       LGT RAIN  37  36  96 NE12G18   29.30F FOG
FRYEBURG       LGT RAIN  34  32  92 N6        29.39S
LEWISTONAUBURN LGT RAIN  33  32  96 N17       29.35F FOG
AUGUSTA        MIX PCPN  32  29  88 N16G23    29.36S FOG
WATERVILLE     MIX PCPN  33  31  92 N12       29.35S FOG
BANGOR         LGT RAIN  34  33  96 NE18      29.37F FOG
GREENVILLE       N/A     32  31  96 NE12G20   29.38F
MILLINOCKET    MIX PCPN  31  29  92 NE14G24   29.50F FOG
HOULTON        FRZ RAIN  33  30  88 E18G35    29.57F
PRESQUE ISLE   LGT SNOW  30  28  92 NE16G26   29.64F FOG     WCI  19
FRENCHVILLE    LGT SNOW  26  20  77 NE18G31   29.67F WCI  13
CARIBOU        FRZ RAIN  31  26  82 NE18G25   29.64F WCI  19
$$

NHZ002-005-008-009-011-012-014-250300-
NEW HAMPSHIRE

CITY           SKY/WX    TMP DP  RH WIND       PRES   REMARKS
PORTSMOUTH     DRIZZLE   34  32  91 N17G23    29.29F
ROCHESTER      MIX PCPN  34  31  88 N14       29.31F FOG
NASHUA         LGT RAIN  34  34 100 NW14      29.34F
MANCHESTER     LGT RAIN  35  31  85 N10       29.33S
CONCORD        CLOUDY    36  32  85 NW8       29.36S
LACONIA        LGT RAIN  34  32  92 E5        29.37F FOG
PLYMOUTH       MIX PCPN  36  33  90 W9        29.38F
BERLIN         MIX PCPN  31  28  89 N6        29.41F FOG
WHITEFIELD     LGT RAIN  34  29  82 N7        29.39F
JAFFREY        RAIN      34  32  92 CALM      29.34S FOG
KEENE          MIX PCPN  34  34 100 N10       29.39R
LEBANON        CLOUDY    35  33  92 N6        29.41F FOG
MT WASHINGTON  LGTSLEET  23  23 100 E25         N/A  VSB 1/8 WCI   7
$$

VTZ005-007-008-250300-
VERMONT

CITY           SKY/WX    TMP DP  RH WIND       PRES   REMARKS
ST JOHNSBURY     N/A     34  33  96 MISG      29.41S
MONTPELIER     LGT SNOW  30  30 100 NW8       29.47S FOG
BURLINGTON     FRZ DRZL  28  26  92 NW10      29.53S FOG     WCI  19
$$

MAZ007-012-024-CTZ003-RIZ002-NYZ038-NYZ072-250300-
SOUTHERN NEW ENGLAND AND NY

CITY           SKY/WX    TMP DP  RH WIND       PRES   REMARKS
BOSTON         CLOUDY    35  34  96 N15G25    29.29S
WORCESTER      FRZ RAIN  33  30  88 N15G23    29.30R
NANTUCKET      CLOUDY    44  42  93 N15       29.15R FOG
PROVIDENCE     LGT RAIN  36  33  89 N17       29.27R
HARTFORD       RAIN      36  34  92 N12       29.37S FOG
ALBANY         LGT SNOW  33  31  92 N12       29.50R FOG
NEW YORK CITY  LGT RAIN  39  34  82 NW16      29.43R
$$

ANZ081-ANZ082-ANZ150-NHZ014-MEZ023>029-250300-
COASTAL MARINE OBSERVATIONS

STATION/POSITION TIME  TEMP    WIND        PRES    WAVE
                       AIR SEA DIR/SP/G            HT/PER
                 (UTC) (F)     (DEG/KT/KT) (MB)    (FT/S)
MOUNT DESERT ROC 0200   43                  989.6R
MATINICUS ROCK   0100   43      60/ 34/ 40  989.6F
ISLE OF SHOALS   0100   35      10/ 26/ 29  991.5F
CASHES LEDGE BUO 0150   46 46   50/ 12/ 16  988.5F  17/11
GEORGES BANK BUO 0150   48 43               988.0F  16/11
$$

.............KEY..............
   WCI - WIND CHILL
   TC  - TEMPERATURE IN CELSIUS
   VSB - VISIBILITY IN MILES
   HX  - HEAT INDEX
   FAIR- INDICATES FEW OR NO CLOUDS BELOW 12,000 FT, WITH NO
         SIGNIFICANT WEATHER AND/OR OBSTRUCTIONS TO VISIBILITY.






USA.gov is the U.S. government's official web portal to all federal, state and local government web resources and services.